Location: Bower School (historical)
(37.8389°N, 89.5348°W)
Time: 03:12:18
(UTC+00:00)

BREEZE-M DEB (TANK) - Pass Details

Date: 11 December 2025
Orbit: 316 x 11320 km, 49.7° (Epoch: 15 January)

Event Time Altitude Azimuth Distance (km) Brightness Sun altitude
Rises 12:16:34 0° 229° (SW) 4,335 7.6 -9.3°
Reaches altitude 10° 12:20:36 10° 228° (SW) 2,410 6.3 -8.5°
Maximum altitude 12:25:08 74° 145° (SE) 456 3.1 -7.7°
Drops below altitude 10° 12:27:31 10° 58° (ENE) 1,277 5.7 -7.3°
Sets 12:29:03 0° 56° (NE) 2,048 6.7 -7.0°
